Location: Unspecified
(45.4615°N, 74.0512°W)
Time: 01:21:26
(UTC-04:00)

CZ-3 Stage 3 - Visible Passes

Search period start: 20 October 2017 00:00
Search period end: 30 October 2017 00:00
Orbit: 420 x 34778 km, 31.0° (Epoch: 19 October)

Date Brightness Start Highest point End Pass type
(mag) Time Alt. Az. Time Alt. Az. Time Alt. Az.
20 Oct 4.9 06:28:00 10° SW 06:33:36 36° SSE 07:03:23 10° ESE visible
23 Oct 4.8 06:18:47 10° SW 06:24:20 36° SSE 06:53:07 10° ESE visible
26 Oct 4.8 06:09:34 10° SW 06:15:04 35° SSE 06:42:52 10° ESE visible
29 Oct 4.8 06:00:45 13° SW 06:05:48 34° SSE 06:32:37 10° ESE visible
